Zurück zum Katalog

CZ-4B R/B

AktivPO
NORAD 37782·ROCKET BODY·🇨🇳 China

Gestartet Aug 15, 2011 von Taiyuan Satellite Launch Center

Loading…

Nächste Überflüge (nächste 24 Stunden)

TLE

AktuellSource: Space-Track

Epoche: Sep 14, 2026, 10:15 UTC

1 37782U 11043B   26257.42742486  .00000105  00000-0  43924-4 0  9997
2 37782  99.3951 153.6677 0187527 237.9576 120.3274 14.39379225791369

Verfolge CZ-4B R/B in Echtzeit mit AllMySat

Download on the App Store